Weather reports worldwide

Advertisment
Fyvie castle, United Kingdom (99010): temperature & dewpoint: 11.08.2017 08:00:00 - 17.08.2017 08:00:00 (BST)Fyvie castle, United Kingdom (99010): wind speed: 11.08.2017 08:00:00 - 17.08.2017 08:00:00 (BST)Fyvie castle, United Kingdom (99010): wind direction: 11.08.2017 08:00:00 - 17.08.2017 08:00:00 (BST)Fyvie castle, United Kingdom (99010): visibility: 11.08.2017 08:00:00 - 17.08.2017 08:00:00 (BST)Fyvie castle, United Kingdom (99010): precipitation: 11.08.2017 08:00:00 - 17.08.2017 08:00:00 (BST)
Date & Time tt [°C] td [°C] ff [km/h] ff [kn] dd vv [km] rr [mm]
17.08.2017 08:00:00 12,7 12,4 - - - - 0,0
17.08.2017 07:00:00 11,6 11,0 - - - - 0,0
17.08.2017 06:00:00 13,9 13,3 - - - - 0,0
17.08.2017 05:00:00 14,0 13,1 - - - - 0,0
17.08.2017 04:00:00 14,6 13,3 - - - - 0,0
17.08.2017 03:00:00 14,4 13,1 - - - - 0,0
17.08.2017 02:00:00 14,8 13,1 - - - - 0,0
17.08.2017 01:00:00 14,7 13,0 - - - - 0,0
17.08.2017 00:00:00 14,5 12,7 - - - - 0,0
16.08.2017 23:00:00 14,3 12,6 - - - - 0,0
16.08.2017 22:00:00 14,2 12,4 - - - - 0,0
16.08.2017 21:00:00 13,9 12,1 - - - - 0,6
16.08.2017 20:00:00 15,0 11,4 - - - - 0,0
16.08.2017 19:00:00 15,0 11,4 - - - - 0,0
16.08.2017 18:00:00 15,5 10,7 - - - - 0,0
16.08.2017 17:00:00 16,2 10,1 - - - - 0,0
16.08.2017 16:00:00 15,6 10,5 - - - - 0,2
16.08.2017 15:00:00 15,8 10,6 - - - - 0,0
16.08.2017 14:00:00 15,6 12,3 - - - - 0,4
16.08.2017 13:00:00 17,4 12,8 - - - - 0,0
16.08.2017 12:00:00 17,5 11,2 - - - - 0,0
16.08.2017 11:00:00 16,9 10,4 - - - - 0,0
16.08.2017 10:00:00 15,5 10,3 141 76 N 3,5 0,0
16.08.2017 09:00:00 12,0 10,0 - - - - 0,0
16.08.2017 08:00:00 9,3 9,3 - - - - 0,0
16.08.2017 07:00:00 6,0 5,9 - - - - 0,0
16.08.2017 06:00:00 5,6 5,4 - - - - 0,0
16.08.2017 05:00:00 6,1 5,8 - - - - 0,0
16.08.2017 04:00:00 6,7 6,5 - - - - 0,0
16.08.2017 03:00:00 6,9 6,5 - - - - 0,0
16.08.2017 02:00:00 7,3 6,8 - - - - 0,0
16.08.2017 01:00:00 8,5 8,1 - - - - 0,0
16.08.2017 00:00:00 9,0 8,2 - - - - 0,0
15.08.2017 23:00:00 10,1 8,6 - - - - 0,0
15.08.2017 22:00:00 11,4 8,9 - - - - 0,0
15.08.2017 21:00:00 14,8 8,9 - - - - 0,0
15.08.2017 20:00:00 16,6 8,7 - - - - 0,0
15.08.2017 19:00:00 18,0 8,7 - - - - 0,0
15.08.2017 18:00:00 19,2 9,0 - - - - 0,0
15.08.2017 17:00:00 18,1 9,4 - - - - 0,0
15.08.2017 16:00:00 19,7 10,2 - - - - 0,0
15.08.2017 15:00:00 19,2 10,8 - - - - 0,2
15.08.2017 14:00:00 17,2 10,5 - - - - 0,0
15.08.2017 13:00:00 17,7 8,4 - - - - 0,0
15.08.2017 12:00:00 18,4 9,1 - - - - 0,0
15.08.2017 11:00:00 17,2 10,3 - - - - 0,0
15.08.2017 10:00:00 15,7 11,8 - - - 10 0,0
15.08.2017 09:00:00 13,9 13,2 - - - - 0,0
15.08.2017 08:00:00 12,5 12,3 - - - - 0,4
15.08.2017 07:00:00 11,9 11,2 - - - - 2,2
15.08.2017 06:00:00 12,7 12,2 - - - - 3,6
15.08.2017 05:00:00 13,4 13,2 - - - - 3,4
15.08.2017 04:00:00 13,3 13,1 - - - - 2,2
15.08.2017 03:00:00 13,6 13,2 - - - - 2,0
15.08.2017 02:00:00 14,0 13,4 - - - - 0,4
15.08.2017 01:00:00 14,5 13,5 - - - - 0,0
15.08.2017 00:00:00 14,4 13,3 - - - - 0,2
14.08.2017 23:00:00 14,9 13,1 - - - - 0,0
14.08.2017 22:00:00 14,6 13,1 - - - 10 0,0
14.08.2017 21:00:00 14,5 12,9 - - - - 0,0
14.08.2017 20:00:00 14,4 12,9 - - - - 0,0
14.08.2017 19:00:00 14,4 12,8 - - - - 0,0
14.08.2017 18:00:00 14,3 12,3 - - - - 0,0
14.08.2017 17:00:00 14,2 12,4 - - - - 0,0
14.08.2017 16:00:00 14,5 12,7 - - - - 0,0
14.08.2017 15:00:00 14,2 11,5 - - - - 0,0
14.08.2017 14:00:00 15,1 11,9 - - - - 0,0
14.08.2017 13:00:00 14,4 12,5 - - - - 0,0
14.08.2017 12:00:00 14,0 12,9 - - - - 0,2
14.08.2017 11:00:00 13,2 12,2 - - - - 0,8
14.08.2017 10:00:00 12,9 12,2 181 98 N 10 0,8
14.08.2017 09:00:00 12,4 11,6 - - - - 0,4
14.08.2017 08:00:00 11,2 11,2 - - - - 0,0
14.08.2017 07:00:00 9,6 9,6 - - - - 0,0
14.08.2017 06:00:00 8,9 8,9 - - - - 0,0
14.08.2017 05:00:00 8,4 8,4 - - - - 0,0
14.08.2017 04:00:00 8,1 8,0 - - - - 0,0
14.08.2017 03:00:00 8,3 8,1 - - - - 0,0
14.08.2017 02:00:00 8,2 8,0 - - - - 0,0
14.08.2017 01:00:00 7,8 7,5 - - - - 0,0
14.08.2017 00:00:00 8,7 8,3 - - - - 0,0
13.08.2017 23:00:00 9,1 8,6 - - - - 0,0
13.08.2017 22:00:00 9,7 8,9 - - - - 0,0
13.08.2017 21:00:00 11,3 9,6 - - - - 0,0
13.08.2017 20:00:00 13,4 10,0 - - - - 0,0
13.08.2017 19:00:00 14,4 9,4 - - - - 0,0
13.08.2017 18:00:00 14,7 10,0 - - - - 0,0
13.08.2017 17:00:00 15,4 9,8 - - - - 0,0
13.08.2017 16:00:00 14,7 11,0 - - - - 0,4
13.08.2017 15:00:00 17,2 6,1 - - - - 0,0
13.08.2017 14:00:00 16,8 7,8 - - - - 0,0
13.08.2017 13:00:00 16,0 7,4 - - - - 0,0
13.08.2017 12:00:00 16,9 6,2 - - - - 0,0
13.08.2017 11:00:00 16,0 6,7 - - - - 0,0
13.08.2017 10:00:00 14,4 6,9 - - - - 0,0
13.08.2017 09:00:00 12,7 7,6 - - - - 0,0
13.08.2017 08:00:00 9,2 7,6 - - - - 0,0
13.08.2017 07:00:00 10,0 7,1 - - - - 0,0
13.08.2017 06:00:00 7,4 6,8 - - - - 0,0
13.08.2017 05:00:00 6,4 6,1 - - - - 0,0
13.08.2017 04:00:00 6,5 6,1 - - - - 0,0
13.08.2017 03:00:00 7,1 6,7 - - - - 0,0
13.08.2017 02:00:00 7,6 7,2 - - - - 0,0
13.08.2017 01:00:00 7,9 6,9 - - - - 0,0
13.08.2017 00:00:00 9,5 8,9 - - - - 0,0
12.08.2017 23:00:00 8,6 8,2 - - - - 0,0
12.08.2017 22:00:00 9,1 7,9 - - - - 0,0
12.08.2017 21:00:00 11,9 9,6 - - - - 0,0
12.08.2017 20:00:00 13,0 8,6 - - - - 0,0
12.08.2017 19:00:00 14,0 7,5 - - - - 0,0
12.08.2017 18:00:00 14,2 7,0 - - - - 0,0
12.08.2017 17:00:00 14,6 8,2 - - - - 0,0
12.08.2017 16:00:00 14,1 7,8 - - - - 0,0
12.08.2017 15:00:00 14,8 8,3 - - - - 0,0
12.08.2017 14:00:00 15,2 7,2 - - - - 0,0
12.08.2017 13:00:00 15,0 9,2 - - - - 0,0
12.08.2017 12:00:00 14,1 8,9 - - - - 0,0
12.08.2017 11:00:00 13,1 10,0 - - - - 0,2
12.08.2017 10:00:00 13,6 9,9 46 25 N 0,7 0,0
12.08.2017 09:00:00 13,1 11,2 - - - - 0,0
12.08.2017 08:00:00 12,6 10,9 - - - - 0,0
12.08.2017 07:00:00 11,7 10,6 - - - - 0,0
12.08.2017 06:00:00 11,6 10,4 - - - - 0,0
12.08.2017 05:00:00 11,8 10,6 - - - - 0,0
12.08.2017 04:00:00 11,8 10,8 - - - - 0,0
12.08.2017 03:00:00 11,9 10,8 - - - - 0,0
12.08.2017 02:00:00 11,9 10,9 - - - - 0,0
12.08.2017 01:00:00 12,4 11,2 - - - - 0,2
12.08.2017 00:00:00 14,1 10,8 - - - - 0,0
11.08.2017 23:00:00 12,4 10,7 - - - - 0,0
11.08.2017 22:00:00 12,9 10,7 - - - - 0,0
11.08.2017 21:00:00 15,3 10,5 - - - - 0,0
11.08.2017 20:00:00 17,2 10,7 - - - - 0,0
11.08.2017 19:00:00 18,4 11,3 - - - - 0,0
11.08.2017 18:00:00 19,8 13,0 - - - - 0,0
11.08.2017 17:00:00 20,6 12,6 - - - - 0,0
11.08.2017 16:00:00 19,6 15,6 - - - - 0,4
11.08.2017 15:00:00 20,1 14,4 - - - - 0,0
11.08.2017 14:00:00 21,4 14,4 - - - - 0,0
11.08.2017 13:00:00 20,6 13,3 - - - - 0,0
11.08.2017 12:00:00 19,5 14,0 - - - - 0,0
11.08.2017 11:00:00 16,0 13,9 - - - - 0,0
11.08.2017 10:00:00 14,2 12,8 37 20 N 50 0,0
11.08.2017 09:00:00 13,0 12,3 - - - - 0,2
11.08.2017 08:00:00 12,5 11,9 - - - - 1,4

tt = temperature
td = dewpoint
ff = wind speed
dd = wind direction
vv = visibility
rr = precipitation

Next stations